Weather History for KLEE - October, 2012

Change the Weather History Date:

Saturday, October 13, 2012

  Actual Average Record
Temperature  
Mean Temperature 76 °F -  
Max Temperature 86 °F 83 °F 91 °F (2002)
Min Temperature 66 °F 62 °F 52 °F (1980)
Cooling Degree Days 11    
Growing Degree Days 26 (Base 50)    
Moisture  
Dew Point 64 °F    
Average Humidity 72    
Maximum Humidity 90    
Minimum Humidity 46    
Precipitation  
Precipitation 0.00 in - - ()
Sea Level Pressure  
Sea Level Pressure 30.18 in    
Wind  
Wind Speed 6 mph (NE)    
Max Wind Speed 17 mph    
Max Gust Speed 23 mph    
Visibility 10 miles    
Events      
Averages and records for this station are not official NWS values.
T = Trace of Precipitation, MM = Missing Value Source: NWS Daily Summary

Daily Weather History Graph

Daily Weather History Graph

Search for Another Location

Airport or City:

Trip Planner

Search our weather history database for the weather conditions in past years. The results will help you decide how hot, cold, wet, or windy it might be!

Date:

Astronomy

Oct. 13, 2012 Rise Set
Actual Time 7:27 AM EDT 6:58 PM EDT
Civil Twilight 7:03 AM EDT 7:22 PM EDT
Nautical Twilight 6:36 AM EDT 7:50 PM EDT
Astronomical Twilight 6:08 AM EDT 8:17 PM EDT
Moon 5:23 AM EDT (10/13) 5:37 PM EDT (10/13)
Length of Visible Light 12h 19m
Length of Day
11h 31m
Waning Crescent, 5% of the Moon is Illuminated
Oct 13
Waning Crescent
Oct 15
New
Oct 21
First Quarter
Oct 29
Full
Nov 6
Last Quarter

Hourly Weather History & Observations

Time (EDT) Temp. Heat Index Dew Point Humidity Pressure Visibility Wind Dir Wind Speed Gust Speed Precip Events Conditions
12:53 AM 69.1 °F - 64.0 °F 84% 30.19 in 10.0 mi NE 3.5 mph - N/A   Clear
1:53 AM 68.0 °F - 64.0 °F 87% 30.18 in 10.0 mi Calm Calm - N/A   Clear
2:53 AM 68.0 °F - 64.9 °F 90% 30.17 in 10.0 mi NE 3.5 mph - N/A   Clear
3:53 AM 68.0 °F - 64.0 °F 87% 30.16 in 10.0 mi NNE 5.8 mph - N/A   Clear
4:53 AM 68.0 °F - 64.0 °F 87% 30.16 in 10.0 mi North 4.6 mph - N/A   Clear
5:53 AM 66.9 °F - 64.0 °F 90% 30.16 in 10.0 mi North 5.8 mph - N/A   Clear
6:53 AM 66.9 °F - 64.0 °F 90% 30.18 in 10.0 mi North 4.6 mph - N/A   Clear
7:53 AM 66.9 °F - 64.0 °F 90% 30.19 in 9.0 mi North 5.8 mph - N/A   Clear
8:53 AM 70.0 °F - 64.9 °F 84% 30.21 in 10.0 mi NNE 4.6 mph - N/A   Overcast
9:53 AM 78.1 °F - 66.0 °F 66% 30.22 in 10.0 mi NNE 6.9 mph - N/A   Clear
10:53 AM 80.1 °F 81.7 °F 64.0 °F 58% 30.22 in 10.0 mi ENE 12.7 mph - N/A   Scattered Clouds
11:53 AM 81.0 °F 82.5 °F 64.0 °F 56% 30.22 in 10.0 mi East 9.2 mph - N/A   Partly Cloudy
12:53 PM 82.0 °F 83.4 °F 64.0 °F 54% 30.20 in 10.0 mi ENE 11.5 mph 18.4 mph N/A   Mostly Cloudy
1:53 PM 82.9 °F 84.4 °F 64.0 °F 53% 30.18 in 10.0 mi ENE 13.8 mph 23.0 mph N/A   Overcast
2:53 PM 82.9 °F 84.6 °F 64.9 °F 54% 30.15 in 10.0 mi East 8.1 mph 20.7 mph N/A   Mostly Cloudy
3:53 PM 86.0 °F 86.8 °F 63.0 °F 46% 30.14 in 10.0 mi ENE 17.3 mph 23.0 mph N/A   Partly Cloudy
4:53 PM 82.9 °F 83.7 °F 62.1 °F 49% 30.14 in 10.0 mi ENE 13.8 mph 20.7 mph N/A   Clear
5:53 PM 81.0 °F 82.5 °F 64.0 °F 56% 30.14 in 10.0 mi ENE 15.0 mph - N/A   Mostly Cloudy
6:53 PM 78.1 °F - 64.0 °F 62% 30.14 in 10.0 mi ENE 11.5 mph 17.3 mph N/A   Clear
8:53 PM 73.0 °F - 64.9 °F 76% 30.17 in 10.0 mi NE 5.8 mph - N/A   Clear
10:53 PM 70.0 °F - 66.0 °F 87% 30.17 in 10.0 mi NE 4.6 mph - N/A   Clear
11:53 PM 70.0 °F - 66.0 °F 87% 30.17 in 10.0 mi NNE 3.5 mph - N/A   Clear